www.pogodaiklimat.ru
Время
(UTC), дата
18 8.08
21 8.08
00 9.08
03 9.08
06 9.08
09 9.08
12 9.08
15 9.08
18 9.08
21 9.08
00 10.08
03 10.08
06 10.08
09 10.08
12 10.08
15 10.08
18 10.08
21 10.08
00 11.08
03 11.08
06 11.08
09 11.08
12 11.08
15 11.08
18 11.08
21 11.08
00 12.08
03 12.08
06 12.08
09 12.08
12 12.08
15 12.08
18 12.08
21 12.08
00 13.08
03 13.08
06 13.08
09 13.08
12 13.08
15 13.08
18 13.08
21 13.08
00 14.08
03 14.08
06 14.08
09 14.08
12 14.08
15 14.08
18 14.08
21 14.08
00 15.08
03 15.08
06 15.08
09 15.08
12 15.08
15 15.08
Ветер
(напр.,м/с)
Видим. Явления Облачность Т
(С)
Тd
(С)
f
(%)
Тe
(С)
Тes
(С)
Комфортность P
(гПа)
Po
(гПа)
Тmin
(С)
Tmax
(С)
R
(мм)
R24
(мм)
S
(см)
В 2 20 км 4/4 600 м
[Cb calv]
+19.6 +13.1 66 +22 +22 комфорт 1020.0 1007.1 +23.6 2
Ю 2 20 км 8/1 600 м
[Sc Ac trans Ci fib]
+15.8 +12.5 81 +16 +16 тепло 1020.0 1006.9
В 2 20 км 8/0
[Ac trans]
+15.7 +11.6 77 +16 +16 тепло 1019.9 1006.8
ЮВ 2 20 км 8/4 600 м
[Sc Ac trans]
+15.3 +11.2 77 +15 +15 тепло 1019.5 1006.4 +13.2
В 3 25 км 8/0
[Ac trans]
+17.3 +11.8 70 +17 +19 тепло 1019.1 1006.1 +13.2
В 3 27 км 9/0
[Ac trans]
+19.9 +12.2 61 +22 +26 комфорт 1018.3 1005.4
В 2 24 км 9/0
[Ac trans]
+20.0 +12.5 62 +22 +26 комфорт 1017.2 1004.3
СВ 1 19 км 9/5 600 м
[Cb calv Ac trans Ci fib]
+18.7 +14.2 75 +21 +21 комфорт 1015.0 1002.2
ЮЗ 2 20 км 10/3 600 м
[Cb calv Ac trans]
+20.4 +15.8 75 +24 +24 комфорт 1013.8 1001.0 +21.6
ЮЗ 2 20 км в посл. час гроза 9/5 300 м
[Sc Ac trans]
+17.4 +14.7 84 +18 +18 тепло 1013.2 1000.3
З 2 20 км {гроза, ливн. дождь} 10/4 600 м
[Sc Ac trans]
+17.5 +15.1 86 +18 +18 тепло 1012.9 1000.0
З 3 20 км 10/6 300 м
[Sc Ci fib]
+15.9 +13.6 86 +15 +15 по сезону 1013.2 1000.2 +15.8 0.3
СЗ 3 21 км 8/6 420 м
[Cb calv Ac trans]
+17.3 +12.8 75 +17 +18 по сезону 1012.9 1000.0 +15.7 0.3
СЗ 3 24 км 8/8 1260 м
[Cb calv]
+17.7 +9.7 59 +18 +19 по сезону 1013.4 1000.5
СЗ 3 23 км {ливн. дождь} 10/8 1080 м
[Cb cap Ac und]
+16.3 +9.0 62 +16 +16 прохладно 1014.1 1001.1
СЗ 3 18 км в посл. час ливневой дождь 9/8 570 м
[Cb cap Ac trans]
+14.4 +10.3 76 +14 +14 прохладно 1014.3 1001.3 0.0
СЗ 3 16 км {ливн. дождь} 10/8 450 м
[Cb cap Ac As]
+13.0 +9.2 78 +12 +12 прохладно 1014.9 1001.8 +18.9 0.0
С 3
{10}
20 км {ливн. дождь} 10/8 660 м
[Cb cap Ac und]
+12.4 +7.5 72 +11 +11 прохладно 1015.3 1002.1
СЗ 4 4000 м слаб. ливневой дождь 10/8 400 м
[Cb cap Ac As]
+10.7 +7.6 81 +8 +8 прохладно 1015.1 1001.9
СЗ 4 3000 м морось {дождь, снег} 10/10 120 м
[St]
+9.7 +8.1 90 +7 +7 холодно 1014.6 1001.3 +9.6 2
С 3 9000 м слаб. ливневой дождь 10/10 300 м
[Cb cap]
+10.5 +8.8 89 +8 +8 холодно 1015.6 1002.4 +9.6 4
С 4 20 км в посл. час дождь {ливн. дождь} 10/10 300 м
[Sc]
+11.3 +9.2 87 +9 +9 очень
холодно
1017.5 1004.3
С 4 20 км {ливн. дождь, дождь} 10/8 800 м
[Sc Ac As]
+13.7 +8.9 73 +12 +13 холодно 1018.9 1005.8
С 3
{11}
20 км 10/6 1000 м
[Sc Ac As]
+13.2 +6.9 66 +12 +12 прохладно 1020.2 1007.0 4
С 2 20 км 10/8 1000 м
[Sc Ac trans]
+11.6 +6.3 70 +11 +11 прохладно 1021.1 1007.8 +13.7 2
С 2 20 км 8/6 1000 м
[Sc Ac trans]
+10.5 +6.5 76 +9 +9 прохладно 1021.3 1008.0
С 2 20 км 10/8 1200 м
[Sc diur, vesp Ac trans]
+10.3 +7.2 81 +9 +9 прохладно 1021.5 1008.2
С 2 20 км 10/8 1000 м
[Sc Ac trans]
+10.2 +7.4 83 +9 +9 прохладно 1021.7 1008.4 +9.8
С 2 11 км слаб. дождь 10/8 540 м
[Sc As op]
+12.1 +7.8 75 +11 +11 прохладно 1021.7 1008.4 +9.8 0.0
С 3 20 км {ливн. дождь, дождь} 10/10 840 м
[Cb calv]
+12.9 +7.5 70 +12 +12 прохладно 1021.3 1008.1
С 1 20 км в посл. час ливневой дождь 10/10 800 м
[Cb calv]
+13.1 +6.9 66 +13 +13 холодно 1020.9 1007.7
СЗ 1 20 км {ливн. дождь} 10/8 900 м
[Cb calv Ac trans]
+12.7 +6.4 65 +13 +13 прохладно 1020.3 1007.1 0.4
ЮЗ 1 20 км {ливн. дождь} 9/0
[Ac trans]
+10.5 +8.0 84 +10 +10 прохладно 1020.1 1006.8 +15.1 0.4
СЗ 1 20 км 10/8 1500 м
[Cb calv Ac trans]
+10.3 +7.8 84 +10 +10 прохладно 1019.6 1006.3
З 1 20 км 10/3 600 м
[Cb calv Ac trans]
+9.4 +7.2 86 +9 +9 прохладно 1019.3 1005.9
З 1 20 км 10/0
[Ac trans]
+7.5 +6.0 90 +7 +7 холодно 1018.8 1005.4 +6.9 0.4
СЗ 1 21 км 9/3 600 м
[Cu Sc Ac trans Ci fib]
+12.4 +8.5 77 +12 +15 прохладно 1018.2 1005.0 +6.9
С 1 25 км 9/8 600 м
[Sc diur, vesp Ac trans]
+14.0 +4.7 53 +15 +16 по сезону 1018.0 1004.9
З 1 27 км 9/3 600 м
[Sc Ac trans Ci fib]
+16.4 +4.4 45 +17 +21 по сезону 1017.5 1004.2
СВ 2 25 км 8/3 600 м
[Sc Ac trans Ci fib]
+16.6 +5.2 47 +17 +18 по сезону 1016.9 1003.6
ЮЗ 2 20 км 9/0
[Ac trans]
+11.3 +8.3 82 +10 +10 прохладно 1016.9 1003.7 +17.7
ЮЗ 2 20 км 9/0
[Ac trans]
+12.2 +6.9 70 +11 +11 по сезону 1016.7 1003.5
ЮЗ 3 20 км 9/3 600 м
[Sc Ac trans Ci fib]
+11.5 +8.4 81 +10 +10 по сезону 1016.4 1003.2
З 2 22 км 10/4 600 м
[Sc Ac As]
+11.3 +8.7 84 +10 +10 прохладно 1016.6 1003.4 +10.9
ЮЗ 1 22 км 10/3 600 м
[Sc Ac As]
+13.6 +10.1 79 +14 +15 по сезону 1016.5 1003.4 +10.9
З 2 20 км 10/4 600 м
[Sc diur, vesp Ac As]
+17.1 +10.5 65 +17 +19 тепло 1015.7 1002.8
ЮЗ 2 25 км 8/4 600 м
[Cu hum Ac trans Ci fib]
+19.2 +9.0 52 +21 +24 комфорт 1015.2 1002.0
З 2 20 км 10/5 300 м
[Sc diur, vesp Ac As]
+18.1 +9.5 57 +19 +19 тепло 1014.0 1001.1
ЮЗ 2 20 км 10/8 450 м
[Sc diur, vesp Ac As]
+14.8 +8.2 65 +15 +15 по сезону 1014.2 1001.2 +19.9
ЮЗ 3 20 км 9/0
[Ac trans]
+13.4 +9.0 75 +12 +12 по сезону 1014.3 1001.2
ЮЗ 2 20 км 8/0
[Ac As]
+13.6 +9.3 75 +13 +13 по сезону 1013.5 1000.4
ЮЗ 2 15 км слаб. дождь 10/8 300 м
[Cb cap As op]
+12.8 +10.7 87 +12 +12 по сезону 1013.1 1000.0 +12.5 0.8
ЮЗ 2 20 км в посл. час ливневой дождь 10/10 570 м
[Cb calv]
+14.3 +12.3 88 +14 +14 по сезону 1012.6 999.6 +12.5 2
ЮЗ 2 20 км в посл. час дождь 10/8 960 м
[Sc As trans]
+15.7 +13.2 85 +16 +16 по сезону 1012.2 999.3
Ю 2 20 км в посл. час дождь 10/8 500 м
[Sc As trans]
+16.5 +13.5 82 +17 +17 по сезону 1012.5 999.6
ЮЗ 1 20 км 10/8 960 м
[Sc Ac As]
+17.5 +13.9 79 +19 +19 тепло 1011.8 998.9 3
Местоположение метеостанции Петрозаводск (Карелия, Россия): широта 61.82 долгота 34.27 высота над уровнем моря 111 м.
В архиве по умолчанию представлена погода в Петрозаводске за последнюю неделю. Архивные данные за месяц целиком и за предыдущие месяцы, начиная с января 2011 года, Вы можете получить, выбрав интересующий диапазон дат из раскрывающегося списка и нажав кнопку "Найти!".
*Определитесь, кто Вы:
Внимание! Время в таблицах - всемирное. Для получения местного времени необходимо прибавить поправку, которая равна 3 ч.
Смотрите также архив погоды в соседних городах и на ближайших метеорологических станциях:
Партнеры нашего сайта:      
Пояснения к столбцам:
  • Ветер - указаны скорость ветра в м/с - средняя за 10 мин, порывы в срок и между сроками (в фигурных скобках) и направление, откуда дует ветер: С - северный,
  • СВ - северо-восточный, В - восточный, ЮВ - юго-восточный, Ю - южный, ЮЗ - юго-западный, З - западный, СЗ - северо-западный.
  • Видимость - горизонтальная дальность видимости в метрах или километрах. При видимости от 1 до 10 км при отсутствии осадков обычно наблюдается дымка, при ухудшении видимости до 1 км и менее - туман. В сухую погоду видимость может ухудшаться дымом, пылью или мглою.
  • Явления - указаны атмосферные явления, наблюдавшиеся в срок или в последний час перед сроком; фигурными скобками обозначены явления, наблюдавшиеся между сроками (за 1-3 часа до срока); квадратными скобками обозначены град или гололедные отложения с указанием их диаметра в мм.
  • Облачность - указаны через наклонную черту общая и нижняя облачность в баллах и высота нижней границы облаков в метрах; квадратными скобками обозначены формы облаков: Ci - перистые, Cs - перисто-слоистые, Cc - перисто-кучевые, Ac - высококучевые, As - высокослоистые, Sc - слоисто-кучевые, Ns - слоисто-дождевые, Cu - кучевые, Cb - кучево-дождевые. Подробнее классификацию облаков см. в Атласе облаков (PDF).
  • T - Температура воздуха - температура, измеренная на высоте 2 м над землей.
  • Td - Температура точки росы - температура, при понижении до которой содержащийся в воздухе водяной пар достигнет насыщения.
  • f - Относительная влажность воздуха - влажноcть воздуха, измеренная на высоте 2 м над землей.
  • Te - Эффективная температура - температура, которую ощущает одетый по сезону человек в тени. Характеристика душности погоды. При расчете учитывается влияние влажности воздуха и скорости ветра на теплоощущения человека.
  • Tes - Эффективная температура на солнце - температура, которую ощущает человек, с поправкой на солнечный нагрев. Характеристика знойности погоды. Зависит от высоты солнца над горизонтом, облачности и скорости ветра. Ночью, в пасмурную погоду, а также при ветре 12 м/с и более поправка равна нулю.
  • P - Атмосферное давление - приведенное к уровню моря атмосферное давление.
  • Po - Атмосферное давление - измеренное на уровне метеостанции атмосферное давление.
  • Tmin - Минимальная температура - минимум температуры воздуха на высоте 2 м над землей.
  • Tmax - Максимальная температура - максимум температуры воздуха на высоте 2 м над землей.
  • R - Количество осадков - Количество выпавших осадков за период времени, мм. При наведении курсора мыши на число - период времени, за который выпало указанное количество осадков.
  • R24 - Количество осадков - Количество выпавших осадков за 24 часа, мм.
  • S - Снежный покров - Высота снежного покрова, см. При наведении курсора мыши на число - состояние снежного покрова и степень покрытия местности в баллах.